Showing default

OPS 8480 (TRANSIT 5B-6), 1420

Orbit data source: Space-Track

OPS 8480 (TRANSIT 5B-6), 1420 is a payload satellite owned by USN BuWeps (US) in LEO that was launched on Thu, 24 Jun 1965 UTC via a THOR ABLESTAR launch vehicle from the Air Force Western Test Range (AFWTR). Payload-class satellites include a variety of spacecraft equipped with specific instruments for various scientific and technological missions. These include communications satellites like Starlink; space stations such as the ISS; scientific satellites like the Hubble; Earth observation satellites from companies like Planet Labs, Umbra, and HawkEye 360; GPS; miniature CubeSats for education and research; and military/defense satellites.

Loading next visibility...
Identifier
1420, 1965-048A
Orbit
LEO
Country
Flag of USUS
Related business
Manufacturer
APL
Mission
Spacecraft
Bus & Motor
TRANSIT 5, Unknown motor
Mass
~54 kg wet, ~54 kg dry
Launch date (UTC)
1965-06-24 (61 years ago)
Launch vehicle
THOR ABLESTAR
Launch site
Air Force Western Test Range (AFWTR)
Object type
Payload
Rocket body
Debris
Shape & HBR
Unknown
Radar Cross Section
Large (>1 m²)

Expand to show TLE details & history
Last TLE update: 12 hours ago

TLE from 12 hours ago
0 OPS 8480 (TRANSIT 5B-6)
1  1420U 65048A   26125.43193936  .00000107  00000-0  14654-3 0  9995
2  1420  89.8744 286.7265 0073040 193.4700 219.8731 13.51899862997674
Epoch: 2026-05-05T10:21Z
TLE epoch observation values (Epoch: 2026-05-05T10:21:59.560Z)
Latitude
52.90371°
Longitude
-91.91329°
Altitude
1,115.87 km
Speed
7.279 km/s
True Right ascension
19h 07m 34s
True Declination
52° 44' 46"
Sunlit
Object was in daylight at epoch
Visualization orbit readout
Latitude
Unknown
Longitude
Unknown
Altitude
Unknown
Speed
Unknown
Apparent Right ascension
Unknown
Apparent Declination
Unknown
Sunlit
N/A
Visualization observer readout
Local Sidereal Time
05:52:53
Azimuth
Unknown
Elevation
Unknown
Doppler factor
Unknown
Orbital elements
Apogee altitude
1,116.669 km
Perigee altitude
1,007.978 km
Semi-major axis
7,440.461 km
Eccentricity
0.0073
Inclination
89.8744°
RAAN
286.7265°
Arg. of periapsis
193.47°
True anomaly
219.34027°
Mean anomaly
219.8731°
Eccentric anomaly
219.60631°
Mean motion
3.38177 °/min
Orbital period
106.45 mins
BSTAR
0.00014654
Loading maneuver chart data...
Computing Atmospheric mass density...

Documentation

Showing up to 5 results
|